YC2UTC-13 Weather Reports


time (UTC)temp
F
wind
direction
speed
knots
gust
knots
rain 1hr
in
rain 24hr
in
rain mn
in
humidity
%
barometer
mb
20260505083813 97 0 0.0 0.0 0.00 0.00 0.00 53 988.6
20260505083305 98 0 0.0 0.0 0.00 0.00 0.00 53 988.5
20260505082757 98 0 0.0 0.0 0.00 0.00 0.00 52 988.5
20260505082249 98 0 0.0 0.0 0.00 0.00 0.00 52 988.5
20260505081739 99 0 0.0 0.0 0.00 0.00 0.00 51 988.4
20260505081231 100 0 0.0 0.0 0.00 0.00 0.00 51 988.5
20260505080723 100 0 0.0 0.0 0.00 0.00 0.00 50 988.5
20260505080214 100 0 0.0 0.0 0.00 0.00 0.00 50 988.4
20260505075705 101 0 0.0 0.0 0.00 0.00 0.00 49 988.4
20260505075156 102 0 0.0 0.0 0.00 0.00 0.00 48 988.4
20260505074648 103 0 0.0 0.0 0.00 0.00 0.00 47 988.4
20260505074140 105 0 0.0 0.0 0.00 0.00 0.00 46 988.4
20260505073632 106 0 0.0 0.0 0.00 0.00 0.00 45 988.5
20260505073119 106 0 0.0 0.0 0.00 0.00 0.00 44 988.5
20260505072609 107 0 0.0 0.0 0.00 0.00 0.00 44 988.5
20260505072101 108 0 0.0 0.0 0.00 0.00 0.00 43 988.6
20260505071552 109 0 0.0 0.0 0.00 0.00 0.00 43 988.7
20260505071041 108 0 0.0 0.0 0.00 0.00 0.00 43 988.7
20260505070532 109 0 0.0 0.0 0.00 0.00 0.00 42 988.8
20260505070022 109 0 0.0 0.0 0.00 0.00 0.00 42 988.9
20260505065514 109 0 0.0 0.0 0.00 0.00 0.00 42 989.0
20260505065004 108 0 0.0 0.0 0.00 0.00 0.00 43 989.0
20260505064451 107 0 0.0 0.0 0.00 0.00 0.00 43 989.1
20260505063943 107 0 0.0 0.0 0.00 0.00 0.00 43 989.1
20260505063435 108 0 0.0 0.0 0.00 0.00 0.00 42 989.2
20260505062927 109 0 0.0 0.0 0.00 0.00 0.00 41 989.3
20260505062419 112 0 0.0 0.0 0.00 0.00 0.00 40 989.4
20260505061911 116 0 0.0 0.0 0.00 0.00 0.00 38 989.4
20260505061402 118 0 0.0 0.0 0.00 0.00 0.00 38 989.5
20260505060854 117 0 0.0 0.0 0.00 0.00 0.00 38 989.6
20260505060345 116 0 0.0 0.0 0.00 0.00 0.00 39 989.6
20260505055834 117 0 0.0 0.0 0.00 0.00 0.00 39 989.7
20260505055324 117 0 0.0 0.0 0.00 0.00 0.00 40 989.8
20260505054815 116 0 0.0 0.0 0.00 0.00 0.00 40 989.8
20260505054304 116 0 0.0 0.0 0.00 0.00 0.00 40 989.9
20260505053755 116 0 0.0 0.0 0.00 0.00 0.00 42 990.0
20260505053246 115 0 0.0 0.0 0.00 0.00 0.00 42 990.1
20260505052738 113 0 0.0 0.0 0.00 0.00 0.00 44 990.2
20260505052229 110 0 0.0 0.0 0.00 0.00 0.00 46 990.3
20260505051720 109 0 0.0 0.0 0.00 0.00 0.00 45 990.4
20260505051208 109 0 0.0 0.0 0.00 0.00 0.00 46 990.4
20260505050658 107 0 0.0 0.0 0.00 0.00 0.00 48 990.6
20260505050149 104 0 0.0 0.0 0.00 0.00 0.00 50 990.7
20260505041529 105 0 0.0 0.0 0.00 0.00 0.00 48 991.5
20260505041020 107 0 0.0 0.0 0.00 0.00 0.00 46 991.5
20260505040511 111 0 0.0 0.0 0.00 0.00 0.00 45 991.6
20260505040003 111 0 0.0 0.0 0.00 0.00 0.00 46 991.7
20260505035453 108 0 0.0 0.0 0.00 0.00 0.00 49 991.8
20260505034942 104 0 0.0 0.0 0.00 0.00 0.00 51 991.9
20260505034435 103 0 0.0 0.0 0.00 0.00 0.00 50 991.9
20260505033926 105 0 0.0 0.0 0.00 0.00 0.00 49 991.9
20260505033413 105 0 0.0 0.0 0.00 0.00 0.00 49 991.9
20260505032904 106 0 0.0 0.0 0.00 0.00 0.00 49 991.9
20260505032356 107 0 0.0 0.0 0.00 0.00 0.00 49 991.9
20260505031847 107 0 0.0 0.0 0.00 0.00 0.00 50 992.0
20260505031337 108 0 0.0 0.0 0.00 0.00 0.00 50 992.0
20260505030828 107 0 0.0 0.0 0.00 0.00 0.00 50 992.1
20260505030319 108 0 0.0 0.0 0.00 0.00 0.00 50 992.1
20260505025808 107 0 0.0 0.0 0.00 0.00 0.00 50 992.1
20260505025258 108 0 0.0 0.0 0.00 0.00 0.00 51 992.1
20260505024750 107 0 0.0 0.0 0.00 0.00 0.00 52 992.1
20260505024242 107 0 0.0 0.0 0.00 0.00 0.00 53 992.1
20260505023734 107 0 0.0 0.0 0.00 0.00 0.00 54 992.1
20260505023224 107 0 0.0 0.0 0.00 0.00 0.00 53 992.2
20260505022716 107 0 0.0 0.0 0.00 0.00 0.00 54 992.2
20260505022207 107 0 0.0 0.0 0.00 0.00 0.00 55 992.2
20260505021659 106 0 0.0 0.0 0.00 0.00 0.00 56 992.3
20260505021151 105 0 0.0 0.0 0.00 0.00 0.00 55 992.3
20260505020642 104 0 0.0 0.0 0.00 0.00 0.00 55 992.4
20260505020135 103 0 0.0 0.0 0.00 0.00 0.00 57 992.3
20260505015627 103 0 0.0 0.0 0.00 0.00 0.00 59 992.4
20260505015117 101 0 0.0 0.0 0.00 0.00 0.00 60 992.4
20260505014609 100 0 0.0 0.0 0.00 0.00 0.00 59 992.4
20260505014101 99 0 0.0 0.0 0.00 0.00 0.00 62 992.4
20260505013551 98 0 0.0 0.0 0.00 0.00 0.00 64 992.4
20260505013044 96 0 0.0 0.0 0.00 0.00 0.00 65 992.4
20260505012536 94 0 0.0 0.0 0.00 0.00 0.00 67 992.4
20260505012027 92 0 0.0 0.0 0.00 0.00 0.00 68 992.4
20260505011519 90 0 0.0 0.0 0.00 0.00 0.00 71 992.4
20260505011010 89 0 0.0 0.0 0.00 0.00 0.00 73 992.3
20260505010500 87 0 0.0 0.0 0.00 0.00 0.00 74 992.2
20260505005951 86 0 0.0 0.0 0.00 0.00 0.00 75 992.2
20260505005443 85 0 0.0 0.0 0.00 0.00 0.00 76 992.1
20260505004934 83 0 0.0 0.0 0.00 0.00 0.00 77 992.1
20260505004426 83 0 0.0 0.0 0.00 0.00 0.00 77 992.1
20260505003918 82 0 0.0 0.0 0.00 0.00 0.00 77 992.0
20260505003409 82 0 0.0 0.0 0.00 0.00 0.00 78 992.0
20260505002901 82 0 0.0 0.0 0.00 0.00 0.00 78 991.9
20260505002353 81 0 0.0 0.0 0.00 0.00 0.00 78 991.9
20260505001844 81 0 0.0 0.0 0.00 0.00 0.00 78 991.8
20260505001334 81 0 0.0 0.0 0.00 0.00 0.00 78 991.8
20260505000825 81 0 0.0 0.0 0.00 0.00 0.00 78 991.8
20260505000314 81 0 0.0 0.0 0.00 0.00 0.00 78 991.7
20260504235804 80 0 0.0 0.0 0.00 0.00 0.00 78 991.7
20260504235255 80 0 0.0 0.0 0.00 0.00 0.00 78 991.7
20260504234747 80 0 0.0 0.0 0.00 0.00 0.00 78 991.6
20260504234238 80 0 0.0 0.0 0.00 0.00 0.00 78 991.6
20260504233729 80 0 0.0 0.0 0.00 0.00 0.00 79 991.5
20260504233222 80 0 0.0 0.0 0.00 0.00 0.00 78 991.5
20260504232713 79 0 0.0 0.0 0.00 0.00 0.00 79 991.5
20260504232204 79 0 0.0 0.0 0.00 0.00 0.00 78 991.4
20260504231655 79 0 0.0 0.0 0.00 0.00 0.00 78 991.3
20260504231148 79 0 0.0 0.0 0.00 0.00 0.00 78 991.2
20260504230639 80 0 0.0 0.0 0.00 0.00 0.00 78 991.1
20260504230129 80 0 0.0 0.0 0.00 0.00 0.00 78 991.1
20260504225620 80 0 0.0 0.0 0.00 0.00 0.00 78 991.0
20260504225111 80 0 0.0 0.0 0.00 0.00 0.00 78 990.9
20260504224602 80 0 0.0 0.0 0.00 0.00 0.00 78 990.9